Meteo Giornale » Osservazioni meteo Ungheria » Budapest-Ferihegy

ore: 22:30 - Osservazioni Meteo Budapest-Ferihegy
Lat. 47° 26' N Lon. 19° 16' E Alt. 151 metri s.l.m.

poco_nuvoloso Europe/Budapest

20 °C

Poco Nuvoloso

Temp. 24 Ore

15 °C

26 °C

Est

11.1 Km/h

Dew point 16 °C

Umidità 77 %

Visibilità  10 Km

Il sole sorge alle ore 04:45

Il sole tramonta alle ore 20:38

Data e Ora Cielo e Fenomeni T °C DP °C Um. % Pres. hPa Vis. km Vento km/h
Oggi h: 22:30 poco_nuvoloso Poco Nuvoloso 20 16 77 1007 10 E 11.1
Oggi h: 22:00 sereno Sereno 21 16 73 1007 10 E 13
Oggi h: 21:30 sereno Sereno 21 16 73 1007 10 E 14.8
Oggi h: 21:00 sereno Sereno 21 15 68 1007 10 E 9.3
Oggi h: 20:30 sereno Sereno 22 15 64 1007 10 E 11.1
Oggi h: 20:00 sereno Sereno 24 15 57 1007 10 E 9.3
Oggi h: 19:30 nuvoloso Nuvoloso 25 14 50 1007 10 S/SE 13
Oggi h: 19:00 nuvoloso Nuvoloso 26 13 44 1007 10 S 16.7
Oggi h: 18:30 nuvoloso Nuvoloso 26 14 47 1007 10 S 9.3
Oggi h: 18:00 nuvoloso Nuvoloso 26 14 47 1007 10 S 14.8
Oggi h: 17:30 nuvoloso Nuvoloso 26 14 47 1007 10 SO 14.8
Oggi h: 17:20 poco_nuvoloso Poco Nuvoloso 26 14 47 1007 10 S/SO 16.7
Oggi h: 17:00 molto_nuvoloso Molto Nuvoloso 25 14 50 1007 10 S/SE 13
Oggi h: 16:30 molto_nuvoloso Molto Nuvoloso 25 14 50 1007 10 S/SE 14.8
Oggi h: 16:00 molto_nuvoloso Molto Nuvoloso 24 15 57 1007 10 E/SE 9.3
Oggi h: 15:30 molto_nuvoloso Molto Nuvoloso 25 15 53 1008 10 N 11.1
Oggi h: 15:00 molto_nuvoloso Molto Nuvoloso 26 14 47 1008 10 SE 7.4
Oggi h: 14:30 molto_nuvoloso Molto Nuvoloso 24 15 57 1008 10 E/SE 14.8
Oggi h: 14:00 molto_nuvoloso Molto Nuvoloso 24 15 57 1008 10 SE 14.8
Oggi h: 13:30 nuvoloso Nuvoloso 24 14 53 1009 10 SE 14.8
Oggi h: 13:00 nuvoloso Nuvoloso 24 14 53 1009 10 SE 13
Oggi h: 12:30 nuvoloso Nuvoloso 24 12 47 1009 10 SE 14.8
Oggi h: 12:00 nuvoloso Nuvoloso 24 10 41 1009 10 E/SE 16.7
Oggi h: 11:30 molto_nuvoloso Molto Nuvoloso 22 12 53 1009 10 E/SE 14.8
Oggi h: 11:00 molto_nuvoloso Molto Nuvoloso 22 13 56 1009 10 E/SE 16.7
Oggi h: 10:30 molto_nuvoloso Molto Nuvoloso 21 14 64 1009 10 E/SE 13
Oggi h: 10:00 molto_nuvoloso Molto Nuvoloso 21 13 60 1009 10 E 11.1
Oggi h: 09:30 molto_nuvoloso Molto Nuvoloso 19 14 72 1009 10 E 9.3
Oggi h: 09:00 molto_nuvoloso Molto Nuvoloso 18 15 82 1009 10 E 7.4
Oggi h: 08:30 molto_nuvoloso Molto Nuvoloso 18 15 82 1009 10 E 7.4
Oggi h: 08:00 poco_nuvoloso Poco Nuvoloso 17 15 88 1009 8 N 5.5
Oggi h: 07:30 molto_nuvoloso Molto Nuvoloso 16 15 93 1008 7 N 7.4
Oggi h: 07:00 foschia Foschia 16 15 93 1008 5 NO 7.4
Oggi h: 06:30 foschia Foschia 16 15 93 1008 5 N 5.5
Oggi h: 06:00 foschia Foschia 15 15 100 1008 4 N 5.5
Oggi h: 05:30 foschia Foschia 15 14 93 1007 4 N 3.7
Oggi h: 05:00 foschia Foschia 15 15 100 1007 4 N 5.5
Oggi h: 04:30 foschia Foschia 15 14 93 1007 5 N 3.7
Oggi h: 04:00 foschia Foschia 15 15 100 1007 5 N 3.7
Oggi h: 03:30 coperto Coperto 15 15 100 1006 6 N 3.7
Oggi h: 03:08 coperto Coperto 15 15 100 1006 6 N 3.7
Oggi h: 03:00 foschia Foschia 15 15 100 1006 5 N 3.7
Oggi h: 02:43 foschia Foschia 15 15 100 1006 5 N 3.7
Oggi h: 02:30 coperto Coperto 16 15 93 1006 6 N 1.8
Oggi h: 02:00 coperto Coperto 16 16 100 1006 7 N 1.8
Oggi h: 01:23 coperto Coperto 15 15 100 1006 8 N 3.7
Oggi h: 01:10 coperto_pioggia Pioviggine 16 15 93 1006 8 N 1.8
Oggi h: 01:00 coperto_pioggia Pioggia Debole 16 15 93 1006 8 N 3.7
Oggi h: 00:30 coperto_pioggia Pioggia Debole 16 15 93 1006 10 N 0
Oggi h: 00:00 coperto_pioggia Pioggia Debole 16 15 93 1005 10 N 3.7